FW1823 Weather Reports


Display with metric or nautical units.
time (UTC)temp
F
wind
direction
speed
MPH
gust
MPH
rain 1hr
in
rain 24hr
in
rain mn
in
humidity
%
barometer
mb
20260502211535 73 171 1.0 3.0 0.50 0.51 0.51 1 1010.0
20260502210029 73 242 1.0 3.0 0.49 0.49 0.49 1 1010.2
20260502204525 73 209 1.0 4.0 0.49 0.49 0.49 1 1010.0
20260502203021 74 264 0.0 5.0 0.49 0.49 0.49 1 1009.8
20260502201524 80 279 5.0 18.0 0.00 0.00 0.00 1 1010.4
20260502200012 82 242 1.0 6.0 0.00 0.00 0.00 1 1009.6
20260502194509 82 234 4.0 10.0 0.00 0.00 0.00 1 1009.6
20260502193003 82 185 2.0 10.0 0.00 0.00 0.00 1 1010.0
20260502191601 82 240 3.0 9.0 0.00 0.00 0.00 1 1010.2
20260502190054 82 214 5.0 10.0 0.00 0.00 0.00 1 1010.1
20260502184549 83 240 3.0 11.0 0.00 0.00 0.00 1 1010.2
20260502183046 83 205 6.0 11.0 0.00 0.00 0.00 1 1010.4
20260502181557 84 213 5.0 11.0 0.00 0.00 0.00 1 1010.3
20260502163015 85 123 8.0 15.0 0.00 0.00 0.00 1 1010.5
20260502161504 85 237 5.0 13.0 0.00 0.00 0.00 1 1010.9
20260502151602 85 156 6.0 16.0 0.00 0.00 0.00 1 1010.5
20260502123005 72 159 4.0 8.0 0.00 0.00 0.00 1 1009.6
20260502121600 70 137 3.0 7.0 0.00 0.00 0.00 1 1009.5
20260502114556 69 126 2.0 4.0 0.00 0.00 0.00 1 1009.6
20260502113053 68 126 2.0 4.0 0.00 0.00 0.00 1 1009.4
20260502111550 69 112 3.0 6.0 0.00 0.00 0.00 1 1009.4
20260502110046 69 112 1.0 6.0 0.00 0.00 0.00 1 1009.2
20260502104542 69 130 3.0 5.0 0.00 0.00 0.00 1 1009.2
20260502103037 69 149 4.0 9.0 0.00 0.00 0.00 1 1008.8
20260502101537 69 123 3.0 6.0 0.00 0.00 0.00 1 1009.0
20260502091515 69 151 2.0 3.0 0.00 0.00 0.00 1 1009.4
20260502080105 68 182 0.0 1.0 0.00 0.00 0.00 1 1009.7
20260502070037 68 182 0.0 0.0 0.00 0.00 0.00 1 1010.0
20260502064546 69 182 0.0 0.0 0.00 0.00 0.00 1 1010.0